Time,TemperatureF,DewpointF,PressureIn,WindDirection,WindDirectionDegrees,WindSpeedMPH,WindSpeedGustMPH,Humidity,HourlyPrecipIn,Conditions,Clouds,dailyrainin,SoftwareType,DateUTC
2013-04-30 00:02:00,28.9,15.6,28.20,NW,315,0.0,0.0,57,0.00,,---,0.00,VWS V14.01,2013-04-30 07:02:00,
2013-04-30 00:07:00,28.8,15.9,28.20,NW,315,0.0,0.0,58,0.00,,---,0.00,VWS V14.01,2013-04-30 07:07:00,
2013-04-30 00:12:00,28.4,16.3,28.20,NW,315,0.0,0.0,60,0.00,,---,0.00,VWS V14.01,2013-04-30 07:12:00,
2013-04-30 00:17:00,28.0,16.0,28.20,NW,315,0.0,0.0,60,0.00,,---,0.00,VWS V14.01,2013-04-30 07:17:00,
2013-04-30 00:22:00,27.9,15.4,28.20,NW,315,0.0,0.0,59,0.00,,---,0.00,VWS V14.01,2013-04-30 07:22:00,
2013-04-30 00:28:00,27.9,15.8,28.20,NW,315,0.0,0.0,60,0.00,,---,0.00,VWS V14.01,2013-04-30 07:28:00,
2013-04-30 00:33:00,27.7,15.6,28.20,NW,315,0.0,0.0,60,0.00,,---,0.00,VWS V14.01,2013-04-30 07:33:00,
2013-04-30 00:38:00,27.5,15.8,28.20,NW,315,0.0,0.0,61,0.00,,---,0.00,VWS V14.01,2013-04-30 07:38:00,
2013-04-30 00:43:00,27.3,15.7,28.20,NW,315,0.0,0.0,61,0.00,,---,0.00,VWS V14.01,2013-04-30 07:43:00,
2013-04-30 00:48:00,27.1,15.5,28.20,NW,315,0.0,0.0,61,0.00,,---,0.00,VWS V14.01,2013-04-30 07:48:00,
2013-04-30 00:53:00,27.7,16.4,28.20,NE,45,0.0,0.0,62,0.00,,---,0.00,VWS V14.01,2013-04-30 07:53:00,
2013-04-30 00:58:00,27.7,17.1,28.20,NNE,22,0.0,0.0,64,0.00,,---,0.00,VWS V14.01,2013-04-30 07:58:00,
2013-04-30 01:03:00,27.5,16.9,28.20,NW,315,0.0,0.0,64,0.00,,---,0.00,VWS V14.01,2013-04-30 08:03:00,
2013-04-30 01:08:00,27.9,17.3,28.20,NE,45,0.0,0.0,64,0.00,,---,0.00,VWS V14.01,2013-04-30 08:08:00,
2013-04-30 01:13:00,27.7,17.5,28.20,NE,45,0.0,0.0,65,0.00,,---,0.00,VWS V14.01,2013-04-30 08:13:00,
2013-04-30 01:18:00,27.3,16.8,28.20,NE,45,0.0,0.0,64,0.00,,---,0.00,VWS V14.01,2013-04-30 08:18:00,
2013-04-30 01:23:00,27.5,18.7,28.20,NNE,22,2.2,2.5,69,0.00,,---,0.00,VWS V14.01,2013-04-30 08:23:00,
2013-04-30 01:28:00,27.3,17.8,28.20,SSE,158,0.0,0.0,67,0.00,,---,0.00,VWS V14.01,2013-04-30 08:28:00,
2013-04-30 01:33:00,27.7,18.2,28.20,SE,135,0.0,0.0,67,0.00,,---,0.00,VWS V14.01,2013-04-30 08:33:00,
2013-04-30 01:38:00,27.5,18.3,28.20,North,0,0.0,0.0,68,0.00,,---,0.00,VWS V14.01,2013-04-30 08:38:00,
2013-04-30 01:43:00,27.5,18.0,28.20,North,0,0.0,0.0,67,0.00,,---,0.00,VWS V14.01,2013-04-30 08:43:00,
2013-04-30 01:48:00,27.9,18.7,28.20,North,0,0.0,0.0,68,0.00,,---,0.00,VWS V14.01,2013-04-30 08:48:00,
2013-04-30 01:53:00,28.2,19.4,28.20,NNE,22,0.0,0.9,69,0.00,,---,0.00,VWS V14.01,2013-04-30 08:53:00,
2013-04-30 01:58:00,28.4,19.5,28.20,NNE,22,0.0,0.0,69,0.00,,---,0.00,VWS V14.01,2013-04-30 08:58:00,
2013-04-30 02:03:00,28.6,19.7,28.20,NNE,22,0.0,0.0,69,0.00,,---,0.00,VWS V14.01,2013-04-30 09:03:00,
2013-04-30 02:08:00,28.8,19.5,28.20,NNE,22,0.0,0.0,68,0.00,,---,0.00,VWS V14.01,2013-04-30 09:08:00,
2013-04-30 02:13:00,29.1,20.6,28.20,NNE,22,0.0,0.0,70,0.00,,---,0.00,VWS V14.01,2013-04-30 09:13:00,
2013-04-30 02:18:00,29.5,20.9,28.23,NNE,22,0.0,0.0,70,0.00,,---,0.00,VWS V14.01,2013-04-30 09:18:00,
2013-04-30 02:23:00,29.5,20.6,28.23,NNE,22,0.0,0.0,69,0.00,,---,0.00,VWS V14.01,2013-04-30 09:23:00,
2013-04-30 02:28:00,29.8,20.9,28.23,WNW,292,0.0,0.0,69,0.00,,---,0.00,VWS V14.01,2013-04-30 09:28:00,
2013-04-30 02:33:00,30.0,21.1,28.23,WNW,292,0.0,0.0,69,0.00,,---,0.00,VWS V14.01,2013-04-30 09:33:00,
2013-04-30 02:38:00,30.4,21.1,28.23,WNW,292,0.0,0.0,68,0.00,,---,0.00,VWS V14.01,2013-04-30 09:38:00,
2013-04-30 02:43:00,30.6,21.3,28.20,WNW,292,0.0,0.0,68,0.00,,---,0.00,VWS V14.01,2013-04-30 09:43:00,
2013-04-30 02:48:00,30.7,21.8,28.20,WNW,292,0.0,0.0,69,0.00,,---,0.00,VWS V14.01,2013-04-30 09:48:00,
2013-04-30 02:53:00,30.9,22.0,28.20,WNW,292,0.0,0.0,69,0.00,,---,0.00,VWS V14.01,2013-04-30 09:53:00,
2013-04-30 02:58:00,30.9,21.6,28.23,WNW,292,0.0,0.0,68,0.00,,---,0.00,VWS V14.01,2013-04-30 09:58:00,
2013-04-30 03:03:00,31.1,21.8,28.23,WNW,292,0.0,0.0,68,0.00,,---,0.00,VWS V14.01,2013-04-30 10:03:00,
2013-04-30 03:08:00,31.3,22.3,28.23,WNW,292,0.0,0.0,69,0.00,,---,0.00,VWS V14.01,2013-04-30 10:08:00,
2013-04-30 03:13:00,31.5,22.5,28.23,WNW,292,0.0,0.0,69,0.00,,---,0.00,VWS V14.01,2013-04-30 10:13:00,
2013-04-30 03:18:00,31.6,22.6,28.23,WNW,292,0.0,0.0,69,0.00,,---,0.00,VWS V14.01,2013-04-30 10:18:00,
2013-04-30 03:23:00,31.8,22.8,28.23,WNW,292,0.0,0.0,69,0.00,,---,0.00,VWS V14.01,2013-04-30 10:23:00,
2013-04-30 03:28:00,31.8,22.8,28.23,WNW,292,0.0,0.0,69,0.00,,---,0.00,VWS V14.01,2013-04-30 10:28:00,
2013-04-30 03:33:00,32.0,23.0,28.23,WNW,292,0.0,0.0,69,0.00,,---,0.00,VWS V14.01,2013-04-30 10:33:00,
2013-04-30 03:38:00,32.2,22.8,28.23,NNE,22,0.0,0.0,68,0.00,,---,0.00,VWS V14.01,2013-04-30 10:38:00,
2013-04-30 03:43:00,32.2,22.8,28.23,NNE,22,0.0,0.0,68,0.00,,---,0.00,VWS V14.01,2013-04-30 10:43:00,
2013-04-30 03:48:00,32.4,23.3,28.23,NNE,22,0.0,0.0,69,0.00,,---,0.00,VWS V14.01,2013-04-30 10:48:00,
2013-04-30 03:53:00,32.5,23.5,28.23,NNE,22,0.0,0.0,69,0.00,,---,0.00,VWS V14.01,2013-04-30 10:53:00,
2013-04-30 03:58:00,32.5,23.5,28.23,NNE,22,0.0,0.0,69,0.00,,---,0.00,VWS V14.01,2013-04-30 10:58:00,
2013-04-30 04:03:00,32.5,23.5,28.23,NNE,22,0.0,0.0,69,0.00,,---,0.00,VWS V14.01,2013-04-30 11:03:00,
2013-04-30 04:08:00,32.5,23.5,28.23,NNE,22,0.0,0.0,69,0.00,,---,0.00,VWS V14.01,2013-04-30 11:08:00,
2013-04-30 04:13:00,32.5,23.2,28.23,NNE,22,0.0,0.0,68,0.00,,---,0.00,VWS V14.01,2013-04-30 11:13:00,
2013-04-30 04:18:00,32.7,23.3,28.23,NNE,22,0.0,0.0,68,0.00,,---,0.00,VWS V14.01,2013-04-30 11:18:00,
2013-04-30 04:23:00,32.9,23.9,28.23,NNE,22,0.0,0.0,69,0.00,,---,0.00,VWS V14.01,2013-04-30 11:23:00,
2013-04-30 04:28:00,32.9,23.9,28.23,NNE,22,0.0,0.0,69,0.00,,---,0.00,VWS V14.01,2013-04-30 11:28:00,
2013-04-30 04:34:00,33.1,24.0,28.23,NNE,22,0.0,0.0,69,0.00,,---,0.00,VWS V14.01,2013-04-30 11:34:00,
2013-04-30 04:39:00,33.1,24.0,28.23,NNE,22,0.0,0.0,69,0.00,,---,0.00,VWS V14.01,2013-04-30 11:39:00,
2013-04-30 04:44:00,33.1,24.0,28.23,NNE,22,0.0,0.0,69,0.00,,---,0.00,VWS V14.01,2013-04-30 11:44:00,
2013-04-30 04:49:00,33.1,24.0,28.23,NNE,22,0.0,0.0,69,0.00,,---,0.00,VWS V14.01,2013-04-30 11:49:00,
2013-04-30 04:54:00,33.1,24.4,28.23,NNE,22,0.0,0.0,70,0.00,,---,0.00,VWS V14.01,2013-04-30 11:54:00,
2013-04-30 04:59:00,33.1,24.4,28.26,NNE,22,0.0,0.0,70,0.00,,---,0.00,VWS V14.01,2013-04-30 11:59:00,
2013-04-30 05:04:00,33.1,24.4,28.26,NNE,22,0.0,0.0,70,0.00,,---,0.00,VWS V14.01,2013-04-30 12:04:00,
2013-04-30 05:09:00,33.1,24.4,28.26,NNE,22,0.0,0.0,70,0.00,,---,0.00,VWS V14.01,2013-04-30 12:09:00,
2013-04-30 05:14:00,33.1,24.4,28.26,NNE,22,0.0,0.0,70,0.00,,---,0.00,VWS V14.01,2013-04-30 12:14:00,
2013-04-30 05:19:00,33.3,24.5,28.26,NNE,22,0.0,0.0,70,0.00,,---,0.00,VWS V14.01,2013-04-30 12:19:00,
2013-04-30 05:24:00,33.3,24.5,28.26,NNE,22,0.0,0.0,70,0.00,,---,0.00,VWS V14.01,2013-04-30 12:24:00,
2013-04-30 05:29:00,33.3,24.5,28.26,NNE,22,0.0,0.0,70,0.00,,---,0.00,VWS V14.01,2013-04-30 12:29:00,
2013-04-30 05:34:00,33.3,24.5,28.26,NNE,22,0.0,0.0,70,0.00,,---,0.00,VWS V14.01,2013-04-30 12:34:00,
2013-04-30 05:39:00,33.3,24.9,28.26,NNE,22,0.0,0.0,71,0.00,,---,0.00,VWS V14.01,2013-04-30 12:39:00,
2013-04-30 05:44:00,33.1,24.7,28.26,NNE,22,0.0,0.0,71,0.00,,---,0.00,VWS V14.01,2013-04-30 12:44:00,
2013-04-30 05:49:00,33.1,24.7,28.26,NNE,22,0.0,0.0,71,0.00,,---,0.00,VWS V14.01,2013-04-30 12:49:00,
2013-04-30 05:54:00,32.9,24.5,28.26,NNE,22,0.0,0.0,71,0.00,,---,0.00,VWS V14.01,2013-04-30 12:54:00,
2013-04-30 05:59:00,32.7,24.7,28.26,NNE,22,0.0,0.0,72,0.00,,---,0.00,VWS V14.01,2013-04-30 12:59:00,
2013-04-30 06:04:00,32.7,24.7,28.26,NNE,22,0.0,0.0,72,0.00,,---,0.00,VWS V14.01,2013-04-30 13:04:00,
2013-04-30 06:09:00,32.7,24.7,28.26,NNE,22,0.0,0.0,72,0.00,,---,0.00,VWS V14.01,2013-04-30 13:09:00,
2013-04-30 06:14:00,32.7,24.7,28.26,NNE,22,0.0,0.0,72,0.00,,---,0.00,VWS V14.01,2013-04-30 13:14:00,
2013-04-30 06:19:00,32.9,25.2,28.26,NNE,22,0.0,0.0,73,0.00,,---,0.00,VWS V14.01,2013-04-30 13:19:00,
2013-04-30 06:24:00,33.1,25.4,28.26,NNE,22,0.0,0.0,73,0.00,,---,0.00,VWS V14.01,2013-04-30 13:24:00,
2013-04-30 06:29:00,33.3,25.6,28.29,NNE,22,0.0,0.0,73,0.00,,---,0.00,VWS V14.01,2013-04-30 13:29:00,
2013-04-30 06:34:00,33.6,25.9,28.29,NNE,22,0.0,0.0,73,0.00,,---,0.00,VWS V14.01,2013-04-30 13:34:00,
2013-04-30 06:39:00,34.0,26.2,28.29,NNE,22,0.0,0.0,73,0.00,,---,0.00,VWS V14.01,2013-04-30 13:39:00,
2013-04-30 06:44:00,34.2,26.4,28.29,NNE,22,0.0,0.0,73,0.00,,---,0.00,VWS V14.01,2013-04-30 13:44:00,
2013-04-30 06:49:00,34.5,26.8,28.29,NNE,22,0.0,0.0,73,0.00,,---,0.00,VWS V14.01,2013-04-30 13:49:00,
2013-04-30 06:54:00,34.7,27.0,28.29,NNE,22,0.0,0.0,73,0.00,,---,0.00,VWS V14.01,2013-04-30 13:54:00,
2013-04-30 06:59:00,34.9,27.5,28.29,NNE,22,0.0,0.0,74,0.00,,---,0.00,VWS V14.01,2013-04-30 13:59:00,
2013-04-30 07:04:00,35.1,27.6,28.29,NNE,22,0.0,0.0,74,0.00,,---,0.00,VWS V14.01,2013-04-30 14:04:00,
2013-04-30 07:09:00,35.2,27.8,28.29,NNE,22,0.0,0.0,74,0.00,,---,0.00,VWS V14.01,2013-04-30 14:09:00,
2013-04-30 07:14:00,35.8,28.0,28.29,NNE,22,0.0,0.0,73,0.00,,---,0.00,VWS V14.01,2013-04-30 14:14:00,
2013-04-30 07:19:00,36.3,28.5,28.29,NNE,22,0.0,0.0,73,0.00,,---,0.00,VWS V14.01,2013-04-30 14:19:00,
2013-04-30 07:25:00,36.9,29.0,28.29,NNE,22,0.0,0.0,73,0.00,,---,0.00,VWS V14.01,2013-04-30 14:25:00,
2013-04-30 07:30:00,37.4,29.5,28.29,NNE,22,0.0,0.0,73,0.00,,---,0.00,VWS V14.01,2013-04-30 14:30:00,
2013-04-30 07:35:00,37.6,29.4,28.29,NE,45,1.3,1.3,72,0.00,,---,0.00,VWS V14.01,2013-04-30 14:35:00,
2013-04-30 07:40:00,37.9,29.7,28.29,NE,45,0.0,0.0,72,0.00,,---,0.00,VWS V14.01,2013-04-30 14:40:00,
2013-04-30 07:45:00,38.1,29.6,28.29,NE,45,0.0,0.0,71,0.00,,---,0.00,VWS V14.01,2013-04-30 14:45:00,
2013-04-30 07:50:00,38.5,29.9,28.29,NE,45,0.0,1.3,71,0.00,,---,0.00,VWS V14.01,2013-04-30 14:50:00,
2013-04-30 07:55:00,38.7,29.7,28.29,NE,45,0.0,2.2,70,0.00,,---,0.00,VWS V14.01,2013-04-30 14:55:00,
2013-04-30 08:00:00,39.2,29.9,28.29,NE,45,0.0,0.0,69,0.00,,---,0.00,VWS V14.01,2013-04-30 15:00:00,
2013-04-30 08:05:00,39.6,29.9,28.29,North,0,0.0,0.0,68,0.00,,---,0.00,VWS V14.01,2013-04-30 15:05:00,
2013-04-30 08:10:00,39.7,29.3,28.29,NE,45,1.6,3.1,66,0.00,,---,0.00,VWS V14.01,2013-04-30 15:10:00,
2013-04-30 08:15:00,39.9,29.5,28.29,ENE,68,1.3,2.5,66,0.00,,---,0.00,VWS V14.01,2013-04-30 15:15:00,
2013-04-30 08:20:00,40.5,29.3,28.29,ENE,68,1.3,2.7,64,0.00,,---,0.00,VWS V14.01,2013-04-30 15:20:00,
2013-04-30 08:25:00,41.0,29.8,28.29,NNE,22,0.0,2.0,64,0.00,,---,0.00,VWS V14.01,2013-04-30 15:25:00,
2013-04-30 08:30:00,41.2,29.2,28.32,ENE,68,1.3,2.0,62,0.00,,---,0.00,VWS V14.01,2013-04-30 15:30:00,
2013-04-30 08:35:00,41.0,28.2,28.32,NE,45,0.0,1.6,60,0.00,,---,0.00,VWS V14.01,2013-04-30 15:35:00,
2013-04-30 08:40:00,41.0,28.2,28.32,NE,45,2.5,2.7,60,0.00,,---,0.00,VWS V14.01,2013-04-30 15:40:00,
2013-04-30 08:45:00,40.6,27.5,28.29,NE,45,0.0,2.9,59,0.00,,---,0.00,VWS V14.01,2013-04-30 15:45:00,
2013-04-30 08:50:00,40.6,27.9,28.29,NE,45,2.5,2.5,60,0.00,,---,0.00,VWS V14.01,2013-04-30 15:50:00,
2013-04-30 08:55:00,40.6,27.9,28.29,North,0,0.0,0.0,60,0.00,,---,0.00,VWS V14.01,2013-04-30 15:55:00,
2013-04-30 09:00:00,40.6,27.9,28.32,NNE,22,0.0,0.0,60,0.00,,---,0.00,VWS V14.01,2013-04-30 16:00:00,
2013-04-30 09:05:00,40.6,27.9,28.32,East,90,0.0,0.0,60,0.00,,---,0.00,VWS V14.01,2013-04-30 16:05:00,
2013-04-30 09:10:00,40.6,27.0,28.32,West,270,0.0,0.0,58,0.00,,---,0.00,VWS V14.01,2013-04-30 16:10:00,
2013-04-30 09:15:00,41.0,27.0,28.32,West,270,0.0,0.0,57,0.00,,---,0.00,VWS V14.01,2013-04-30 16:15:00,
2013-04-30 09:20:00,40.8,26.4,28.32,West,270,1.1,1.1,56,0.00,,---,0.00,VWS V14.01,2013-04-30 16:20:00,
2013-04-30 09:25:00,41.4,26.9,28.32,West,270,0.0,0.0,56,0.00,,---,0.00,VWS V14.01,2013-04-30 16:25:00,
2013-04-30 09:30:00,42.1,27.5,28.32,SSW,202,0.0,0.0,56,0.00,,---,0.00,VWS V14.01,2013-04-30 16:30:00,
2013-04-30 09:35:00,42.3,26.8,28.32,West,270,2.0,2.5,54,0.00,,---,0.00,VWS V14.01,2013-04-30 16:35:00,
2013-04-30 09:40:00,43.0,27.5,28.32,WSW,248,0.0,0.0,54,0.00,,---,0.00,VWS V14.01,2013-04-30 16:40:00,
2013-04-30 09:45:00,43.5,27.1,28.32,NNE,22,2.7,2.7,52,0.00,,---,0.00,VWS V14.01,2013-04-30 16:45:00,
2013-04-30 09:50:00,43.7,26.3,28.32,ESE,112,1.1,2.0,50,0.00,,---,0.00,VWS V14.01,2013-04-30 16:50:00,
2013-04-30 09:55:00,45.1,28.1,28.32,ESE,112,1.6,2.5,51,0.00,,---,0.00,VWS V14.01,2013-04-30 16:55:00,
2013-04-30 10:00:00,46.2,27.6,28.32,SE,135,0.0,0.0,48,0.00,,---,0.00,VWS V14.01,2013-04-30 17:00:00,
2013-04-30 10:05:00,47.5,27.8,28.32,East,90,4.0,4.0,46,0.00,,---,0.00,VWS V14.01,2013-04-30 17:05:00,
2013-04-30 10:10:00,46.6,24.7,28.32,ENE,68,2.5,3.1,42,0.00,,---,0.00,VWS V14.01,2013-04-30 17:10:00,
2013-04-30 10:15:00,46.8,26.0,28.32,ENE,68,2.5,2.5,44,0.00,,---,0.00,VWS V14.01,2013-04-30 17:15:00,
2013-04-30 10:20:00,46.9,26.2,28.32,North,0,1.3,1.6,44,0.00,,---,0.00,VWS V14.01,2013-04-30 17:20:00,
2013-04-30 10:25:00,46.8,23.7,28.32,ENE,68,3.8,4.3,40,0.00,,---,0.00,VWS V14.01,2013-04-30 17:25:00,
2013-04-30 10:30:00,46.6,23.6,28.32,NNE,22,1.3,2.2,40,0.00,,---,0.00,VWS V14.01,2013-04-30 17:30:00,
2013-04-30 10:35:00,45.3,21.8,28.32,WSW,248,4.0,5.4,39,0.00,,---,0.00,VWS V14.01,2013-04-30 17:35:00,
2013-04-30 10:40:00,44.1,21.3,28.32,NNE,22,2.0,4.0,40,0.00,,---,0.00,VWS V14.01,2013-04-30 17:40:00,
2013-04-30 10:45:00,43.3,22.4,28.35,NNE,22,3.6,8.5,43,0.00,,---,0.00,VWS V14.01,2013-04-30 17:45:00,
2013-04-30 10:50:00,41.7,23.5,28.35,NNE,22,0.9,2.9,48,0.00,,---,0.00,VWS V14.01,2013-04-30 17:50:00,
2013-04-30 10:55:00,40.8,24.6,28.35,ENE,68,3.1,4.0,52,0.00,,---,0.00,VWS V14.01,2013-04-30 17:55:00,
2013-04-30 11:00:00,40.1,24.8,28.35,East,90,1.1,2.9,54,0.00,,---,0.00,VWS V14.01,2013-04-30 18:00:00,
2013-04-30 11:05:00,40.5,25.1,28.35,WSW,248,0.0,0.0,54,0.00,,---,0.00,VWS V14.01,2013-04-30 18:05:00,
2013-04-30 11:10:00,41.7,27.2,28.35,WNW,292,0.0,0.0,56,0.00,,---,0.00,VWS V14.01,2013-04-30 18:10:00,
2013-04-30 11:15:00,45.3,31.9,28.35,South,180,2.0,2.0,59,0.00,,---,0.00,VWS V14.01,2013-04-30 18:15:00,
2013-04-30 11:20:00,47.5,32.1,28.35,SE,135,2.9,2.9,55,0.00,,---,0.00,VWS V14.01,2013-04-30 18:20:00,
2013-04-30 11:25:00,50.0,32.6,28.35,East,90,2.0,2.2,51,0.00,,---,0.00,VWS V14.01,2013-04-30 18:25:00,
2013-04-30 11:31:00,51.1,31.6,28.35,SE,135,2.7,2.9,47,0.00,,---,0.00,VWS V14.01,2013-04-30 18:31:00,
2013-04-30 11:36:00,51.3,30.1,28.35,SSW,202,0.0,3.1,44,0.00,,---,0.00,VWS V14.01,2013-04-30 18:36:00,
2013-04-30 11:41:00,53.1,28.8,28.35,ESE,112,4.0,4.5,39,0.00,,---,0.00,VWS V14.01,2013-04-30 18:41:00,
2013-04-30 11:46:00,53.8,28.1,28.35,ENE,68,3.8,3.8,37,0.00,,---,0.00,VWS V14.01,2013-04-30 18:46:00,
2013-04-30 11:51:00,53.8,28.1,28.35,East,90,2.5,3.4,37,0.00,,---,0.00,VWS V14.01,2013-04-30 18:51:00,
2013-04-30 11:56:00,55.8,29.2,28.35,NNW,338,1.1,4.9,36,0.00,,---,0.00,VWS V14.01,2013-04-30 18:56:00,
2013-04-30 12:01:00,58.3,31.5,28.35,West,270,3.4,3.4,36,0.00,,---,0.00,VWS V14.01,2013-04-30 19:01:00,
2013-04-30 12:06:00,57.9,28.3,28.35,ENE,68,6.5,6.5,32,0.00,,---,0.00,VWS V14.01,2013-04-30 19:06:00,
2013-04-30 12:11:00,58.3,30.1,28.35,WNW,292,2.7,3.6,34,0.00,,---,0.00,VWS V14.01,2013-04-30 19:11:00,
2013-04-30 12:16:00,59.4,29.5,28.32,ESE,112,1.3,1.3,32,0.00,,---,0.00,VWS V14.01,2013-04-30 19:16:00,
2013-04-30 12:21:00,59.7,28.3,28.32,NNE,22,2.0,2.5,30,0.00,,---,0.00,VWS V14.01,2013-04-30 19:21:00,
2013-04-30 12:26:00,60.1,27.7,28.32,ENE,68,3.1,3.1,29,0.00,,---,0.00,VWS V14.01,2013-04-30 19:26:00,
2013-04-30 12:31:00,60.1,26.9,28.32,ESE,112,3.4,3.8,28,0.00,,---,0.00,VWS V14.01,2013-04-30 19:31:00,
2013-04-30 12:36:00,60.1,26.9,28.32,WNW,292,2.5,2.5,28,0.00,,---,0.00,VWS V14.01,2013-04-30 19:36:00,
2013-04-30 12:41:00,58.3,25.3,28.32,ENE,68,3.8,3.8,28,0.00,,---,0.00,VWS V14.01,2013-04-30 19:41:00,
2013-04-30 12:46:00,59.7,26.6,28.32,West,270,1.1,2.7,28,0.00,,---,0.00,VWS V14.01,2013-04-30 19:46:00,
2013-04-30 12:51:00,59.4,25.4,28.32,SSE,158,3.1,4.0,27,0.00,,---,0.00,VWS V14.01,2013-04-30 19:51:00,
2013-04-30 12:56:00,58.8,24.9,28.32,WNW,292,2.9,2.9,27,0.00,,---,0.00,VWS V14.01,2013-04-30 19:56:00,
2013-04-30 13:01:00,58.3,23.6,28.32,WNW,292,2.0,2.0,26,0.00,,---,0.00,VWS V14.01,2013-04-30 20:01:00,
2013-04-30 13:06:00,56.8,22.3,28.32,NE,45,2.5,3.1,26,0.00,,---,0.00,VWS V14.01,2013-04-30 20:06:00,
2013-04-30 13:11:00,56.5,21.1,28.32,NNE,22,6.3,6.3,25,0.00,,---,0.00,VWS V14.01,2013-04-30 20:11:00,
2013-04-30 13:16:00,57.2,20.8,28.32,West,270,2.0,2.0,24,0.00,,---,0.00,VWS V14.01,2013-04-30 20:16:00,
2013-04-30 13:21:00,56.5,18.1,28.32,ESE,112,5.6,5.6,22,0.00,,---,0.00,VWS V14.01,2013-04-30 20:21:00,
2013-04-30 13:26:00,57.0,18.6,28.32,SW,225,6.3,6.3,22,0.00,,---,0.00,VWS V14.01,2013-04-30 20:26:00,
2013-04-30 13:31:00,58.8,22.1,28.32,NNE,22,4.3,4.3,24,0.00,,---,0.00,VWS V14.01,2013-04-30 20:31:00,
2013-04-30 13:36:00,57.6,19.0,28.32,NNE,22,1.1,2.9,22,0.00,,---,0.00,VWS V14.01,2013-04-30 20:36:00,
2013-04-30 13:41:00,59.4,22.6,28.32,North,0,0.9,0.9,24,0.00,,---,0.00,VWS V14.01,2013-04-30 20:41:00,
2013-04-30 13:46:00,61.0,18.5,28.32,NE,45,5.4,5.4,19,0.00,,---,0.00,VWS V14.01,2013-04-30 20:46:00,
2013-04-30 13:51:00,60.6,18.2,28.32,ENE,68,5.8,5.8,19,0.00,,---,0.00,VWS V14.01,2013-04-30 20:51:00,
2013-04-30 13:56:00,60.6,15.6,28.32,ESE,112,3.6,3.6,17,0.00,,---,0.00,VWS V14.01,2013-04-30 20:56:00,
2013-04-30 14:01:00,58.5,13.8,28.32,North,0,3.1,5.4,17,0.00,,---,0.00,VWS V14.01,2013-04-30 21:01:00,
2013-04-30 14:06:00,57.2,15.3,28.32,East,90,2.9,3.1,19,0.00,,---,0.00,VWS V14.01,2013-04-30 21:06:00,
2013-04-30 14:11:00,56.3,15.8,28.32,NE,45,2.5,3.1,20,0.00,,---,0.00,VWS V14.01,2013-04-30 21:11:00,
2013-04-30 14:16:00,56.5,15.9,28.32,NE,45,5.4,6.5,20,0.00,,---,0.00,VWS V14.01,2013-04-30 21:16:00,
2013-04-30 14:21:00,54.5,14.3,28.32,NE,45,2.2,2.5,20,0.00,,---,0.00,VWS V14.01,2013-04-30 21:21:00,
2013-04-30 14:26:00,54.5,14.3,28.32,SW,225,2.7,3.8,20,0.00,,---,0.00,VWS V14.01,2013-04-30 21:26:00,
2013-04-30 14:31:00,57.2,15.3,28.32,ENE,68,4.9,5.4,19,0.00,,---,0.00,VWS V14.01,2013-04-30 21:31:00,
2013-04-30 14:36:00,57.7,13.2,28.32,NE,45,4.9,4.9,17,0.00,,---,0.00,VWS V14.01,2013-04-30 21:36:00,
2013-04-30 14:41:00,60.4,18.0,28.32,North,0,5.6,5.6,19,0.00,,---,0.00,VWS V14.01,2013-04-30 21:41:00,
2013-04-30 14:46:00,61.3,14.8,28.35,ENE,68,2.9,4.5,16,0.00,,---,0.00,VWS V14.01,2013-04-30 21:46:00,
2013-04-30 14:51:00,62.4,15.7,28.35,NE,45,1.6,4.3,16,0.00,,---,0.00,VWS V14.01,2013-04-30 21:51:00,
2013-04-30 14:56:00,64.4,15.8,28.35,South,180,2.5,2.5,15,0.00,,---,0.00,VWS V14.01,2013-04-30 21:56:00,
2013-04-30 15:01:00,61.3,11.8,28.32,West,270,1.6,4.9,14,0.00,,---,0.00,VWS V14.01,2013-04-30 22:01:00,
2013-04-30 15:06:00,62.8,11.2,28.32,ENE,68,6.0,7.6,13,0.00,,---,0.00,VWS V14.01,2013-04-30 22:06:00,
2013-04-30 15:12:00,63.0,11.4,28.32,NNE,22,5.8,9.0,13,0.00,,---,0.00,VWS V14.01,2013-04-30 22:12:00,
2013-04-30 15:17:00,64.2,12.4,28.32,NE,45,4.9,7.4,13,0.00,,---,0.00,VWS V14.01,2013-04-30 22:17:00,
2013-04-30 15:22:00,64.2,12.4,28.32,ENE,68,0.9,7.8,13,0.00,,---,0.00,VWS V14.01,2013-04-30 22:22:00,
2013-04-30 15:27:00,65.1,13.1,28.32,WSW,248,0.0,2.0,13,0.00,,---,0.00,VWS V14.01,2013-04-30 22:27:00,
2013-04-30 15:32:00,62.6,11.1,28.35,NE,45,2.2,5.4,13,0.00,,---,0.00,VWS V14.01,2013-04-30 22:32:00,
2013-04-30 15:37:00,60.1,10.8,28.35,WSW,248,2.0,6.3,14,0.00,,---,0.00,VWS V14.01,2013-04-30 22:37:00,
2013-04-30 15:42:00,61.3,11.8,28.35,NNE,22,1.1,2.5,14,0.00,,---,0.00,VWS V14.01,2013-04-30 22:42:00,
2013-04-30 15:47:00,62.8,11.2,28.32,NNE,22,2.9,3.6,13,0.00,,---,0.00,VWS V14.01,2013-04-30 22:47:00,
2013-04-30 15:52:00,63.0,11.4,28.32,WNW,292,1.6,2.7,13,0.00,,---,0.00,VWS V14.01,2013-04-30 22:52:00,
2013-04-30 15:57:00,62.6,11.1,28.32,NE,45,0.0,2.0,13,0.00,,---,0.00,VWS V14.01,2013-04-30 22:57:00,
2013-04-30 16:02:00,61.7,12.1,28.32,NE,45,5.6,5.6,14,0.00,,---,0.00,VWS V14.01,2013-04-30 23:02:00,
2013-04-30 16:07:00,60.1,10.8,28.32,NNE,22,2.5,2.5,14,0.00,,---,0.00,VWS V14.01,2013-04-30 23:07:00,
2013-04-30 16:12:00,59.2,10.0,28.32,ENE,68,3.6,4.9,14,0.00,,---,0.00,VWS V14.01,2013-04-30 23:12:00,
2013-04-30 16:17:00,57.2,8.4,28.35,SSE,158,1.6,1.6,14,0.00,,---,0.00,VWS V14.01,2013-04-30 23:17:00,
2013-04-30 16:22:00,57.0,9.8,28.35,NNE,22,2.2,2.5,15,0.00,,---,0.00,VWS V14.01,2013-04-30 23:22:00,
2013-04-30 16:27:00,56.5,9.4,28.35,NNW,338,4.0,4.0,15,0.00,,---,0.00,VWS V14.01,2013-04-30 23:27:00,
2013-04-30 16:32:00,55.6,8.7,28.35,NE,45,3.1,3.1,15,0.00,,---,0.00,VWS V14.01,2013-04-30 23:32:00,
2013-04-30 16:37:00,54.9,8.1,28.35,SSE,158,2.2,2.2,15,0.00,,---,0.00,VWS V14.01,2013-04-30 23:37:00,
2013-04-30 16:42:00,54.9,12.2,28.35,ENE,68,4.0,4.0,18,0.00,,---,0.00,VWS V14.01,2013-04-30 23:42:00,
2013-04-30 16:47:00,54.5,11.9,28.35,South,180,2.5,2.7,18,0.00,,---,0.00,VWS V14.01,2013-04-30 23:47:00,
2013-04-30 16:52:00,53.4,11.0,28.35,NE,45,6.0,6.0,18,0.00,,---,0.00,VWS V14.01,2013-04-30 23:52:00,
2013-04-30 16:57:00,52.7,13.9,28.35,NE,45,3.4,3.4,21,0.00,,---,0.00,VWS V14.01,2013-04-30 23:57:00,
2013-04-30 17:02:00,52.0,9.8,28.35,NE,45,7.8,7.8,18,0.00,,---,0.00,VWS V14.01,2013-05-01 00:02:00,
2013-04-30 17:07:00,51.8,9.7,28.35,ENE,68,3.1,3.1,18,0.00,,---,0.00,VWS V14.01,2013-05-01 00:07:00,
2013-04-30 17:12:00,51.6,13.0,28.35,SE,135,2.5,5.4,21,0.00,,---,0.00,VWS V14.01,2013-05-01 00:12:00,
2013-04-30 17:17:00,51.4,12.8,28.38,NNE,22,3.1,6.3,21,0.00,,---,0.00,VWS V14.01,2013-05-01 00:17:00,
2013-04-30 17:22:00,51.3,12.7,28.38,NE,45,5.8,5.8,21,0.00,,---,0.00,VWS V14.01,2013-05-01 00:22:00,
2013-04-30 17:27:00,51.1,15.6,28.38,NNE,22,5.8,5.8,24,0.00,,---,0.00,VWS V14.01,2013-05-01 00:27:00,
2013-04-30 17:32:00,50.7,15.3,28.35,ESE,112,2.9,2.9,24,0.00,,---,0.00,VWS V14.01,2013-05-01 00:32:00,
2013-04-30 17:37:00,50.5,15.1,28.35,NE,45,5.6,6.0,24,0.00,,---,0.00,VWS V14.01,2013-05-01 00:37:00,
2013-04-30 17:42:00,50.4,14.9,28.35,ENE,68,0.9,3.1,24,0.00,,---,0.00,VWS V14.01,2013-05-01 00:42:00,
2013-04-30 17:47:00,50.0,16.5,28.35,SE,135,1.3,1.3,26,0.00,,---,0.00,VWS V14.01,2013-05-01 00:47:00,
2013-04-30 17:52:00,49.1,17.4,28.35,SW,225,0.0,0.0,28,0.00,,---,0.00,VWS V14.01,2013-05-01 00:52:00,
2013-04-30 17:57:00,48.2,17.5,28.35,SW,225,1.3,1.3,29,0.00,,---,0.00,VWS V14.01,2013-05-01 00:57:00,
2013-04-30 18:02:00,47.3,18.2,28.38,WSW,248,2.5,2.5,31,0.00,,---,0.00,VWS V14.01,2013-05-01 01:02:00,
2013-04-30 18:07:00,46.8,18.5,28.38,SSW,202,2.5,2.5,32,0.00,,---,0.00,VWS V14.01,2013-05-01 01:07:00,
2013-04-30 18:12:00,46.2,19.4,28.38,SW,225,1.3,1.3,34,0.00,,---,0.00,VWS V14.01,2013-05-01 01:12:00,
2013-04-30 18:17:00,46.0,19.9,28.38,WSW,248,0.0,2.2,35,0.00,,---,0.00,VWS V14.01,2013-05-01 01:17:00,
2013-04-30 18:22:00,45.7,20.3,28.38,ENE,68,0.9,1.6,36,0.00,,---,0.00,VWS V14.01,2013-05-01 01:22:00,
2013-04-30 18:28:00,45.9,20.4,28.38,WNW,292,2.9,4.3,36,0.00,,---,0.00,VWS V14.01,2013-05-01 01:28:00,
2013-04-30 18:33:00,45.5,20.8,28.38,SSW,202,2.0,3.1,37,0.00,,---,0.00,VWS V14.01,2013-05-01 01:33:00,
2013-04-30 18:38:00,45.1,21.1,28.38,East,90,0.0,0.0,38,0.00,,---,0.00,VWS V14.01,2013-05-01 01:38:00,
2013-04-30 18:43:00,45.1,21.1,28.38,WSW,248,0.0,2.2,38,0.00,,---,0.00,VWS V14.01,2013-05-01 01:43:00,
2013-04-30 18:48:00,44.4,21.0,28.38,SSW,202,2.5,2.5,39,0.00,,---,0.00,VWS V14.01,2013-05-01 01:48:00,
2013-04-30 18:53:00,44.2,21.5,28.38,SSW,202,1.1,1.1,40,0.00,,---,0.00,VWS V14.01,2013-05-01 01:53:00,
2013-04-30 18:58:00,44.8,18.1,28.38,NE,45,2.9,2.9,34,0.00,,---,0.00,VWS V14.01,2013-05-01 01:58:00,
2013-04-30 19:03:00,44.6,21.2,28.38,WSW,248,0.0,0.0,39,0.00,,---,0.00,VWS V14.01,2013-05-01 02:03:00,
2013-04-30 19:08:00,43.9,21.1,28.38,ESE,112,1.1,2.9,40,0.00,,---,0.00,VWS V14.01,2013-05-01 02:08:00,
2013-04-30 19:13:00,44.2,20.9,28.38,WSW,248,1.1,2.5,39,0.00,,---,0.00,VWS V14.01,2013-05-01 02:13:00,
2013-04-30 19:18:00,43.5,20.8,28.38,WSW,248,0.0,0.0,40,0.00,,---,0.00,VWS V14.01,2013-05-01 02:18:00,
2013-04-30 19:23:00,42.8,20.2,28.38,WSW,248,2.7,2.7,40,0.00,,---,0.00,VWS V14.01,2013-05-01 02:23:00,
2013-04-30 19:28:00,42.6,20.6,28.38,NNW,338,1.1,2.5,41,0.00,,---,0.00,VWS V14.01,2013-05-01 02:28:00,
2013-04-30 19:33:00,42.4,19.8,28.41,East,90,2.5,2.5,40,0.00,,---,0.00,VWS V14.01,2013-05-01 02:33:00,
2013-04-30 19:38:00,42.4,20.4,28.41,WSW,248,0.0,0.9,41,0.00,,---,0.00,VWS V14.01,2013-05-01 02:38:00,
2013-04-30 19:43:00,42.1,20.7,28.41,SSW,202,2.5,2.5,42,0.00,,---,0.00,VWS V14.01,2013-05-01 02:43:00,
2013-04-30 19:48:00,42.1,20.7,28.41,East,90,1.3,1.3,42,0.00,,---,0.00,VWS V14.01,2013-05-01 02:48:00,
2013-04-30 19:53:00,41.7,20.9,28.41,WSW,248,0.0,1.3,43,0.00,,---,0.00,VWS V14.01,2013-05-01 02:53:00,
2013-04-30 19:58:00,41.2,20.4,28.41,WNW,292,0.0,1.1,43,0.00,,---,0.00,VWS V14.01,2013-05-01 02:58:00,
2013-04-30 20:03:00,40.8,20.1,28.41,WSW,248,1.3,2.0,43,0.00,,---,0.00,VWS V14.01,2013-05-01 03:03:00,
2013-04-30 20:08:00,40.5,20.3,28.41,SW,225,1.3,1.3,44,0.00,,---,0.00,VWS V14.01,2013-05-01 03:08:00,
2013-04-30 20:13:00,39.7,20.1,28.44,SW,225,0.0,0.0,45,0.00,,---,0.00,VWS V14.01,2013-05-01 03:13:00,
2013-04-30 20:18:00,39.4,20.3,28.44,WSW,248,0.0,0.0,46,0.00,,---,0.00,VWS V14.01,2013-05-01 03:18:00,
2013-04-30 20:23:00,38.8,19.8,28.44,West,270,0.0,0.0,46,0.00,,---,0.00,VWS V14.01,2013-05-01 03:23:00,
2013-04-30 20:28:00,38.7,19.7,28.44,West,270,0.0,0.0,46,0.00,,---,0.00,VWS V14.01,2013-05-01 03:28:00,
2013-04-30 20:33:00,38.3,19.9,28.44,West,270,0.0,0.0,47,0.00,,---,0.00,VWS V14.01,2013-05-01 03:33:00,
2013-04-30 20:38:00,37.9,19.5,28.44,WNW,292,0.0,0.0,47,0.00,,---,0.00,VWS V14.01,2013-05-01 03:38:00,
2013-04-30 20:43:00,37.4,19.0,28.44,WNW,292,0.0,0.0,47,0.00,,---,0.00,VWS V14.01,2013-05-01 03:43:00,
2013-04-30 20:48:00,37.0,19.7,28.44,WNW,292,0.0,0.0,49,0.00,,---,0.00,VWS V14.01,2013-05-01 03:48:00,
2013-04-30 20:53:00,36.7,19.3,28.44,WNW,292,0.0,0.0,49,0.00,,---,0.00,VWS V14.01,2013-05-01 03:53:00,
2013-04-30 20:58:00,36.7,20.3,28.47,NNW,338,0.0,2.5,51,0.00,,---,0.00,VWS V14.01,2013-05-01 03:58:00,
2013-04-30 21:01:00,36.7,19.8,28.47,WNW,292,0.0,1.6,50,0.00,,---,0.00,VWS V14.01,2013-05-01 04:01:00,
2013-04-30 21:02:00,36.5,19.6,28.47,WNW,292,0.0,0.0,50,0.00,,---,0.00,VWS V14.01,2013-05-01 04:02:00,
2013-04-30 21:07:00,36.3,19.5,28.47,WNW,292,1.3,1.3,50,0.00,,---,0.00,VWS V14.01,2013-05-01 04:07:00,
2013-04-30 21:12:00,36.1,19.3,28.47,NW,315,0.0,0.0,50,0.00,,---,0.00,VWS V14.01,2013-05-01 04:12:00,
2013-04-30 21:17:00,35.8,19.0,28.47,WNW,292,0.0,0.0,50,0.00,,---,0.00,VWS V14.01,2013-05-01 04:17:00,
2013-04-30 21:22:00,35.8,19.4,28.47,WNW,292,0.0,0.0,51,0.00,,---,0.00,VWS V14.01,2013-05-01 04:22:00,
2013-04-30 21:27:00,36.0,19.6,28.47,NW,315,1.1,2.2,51,0.00,,---,0.00,VWS V14.01,2013-05-01 04:27:00,
2013-04-30 21:32:00,36.1,19.8,28.47,NW,315,0.0,0.0,51,0.00,,---,0.00,VWS V14.01,2013-05-01 04:32:00,
2013-04-30 21:37:00,36.1,19.8,28.47,NW,315,0.0,0.0,51,0.00,,---,0.00,VWS V14.01,2013-05-01 04:37:00,
2013-04-30 21:42:00,36.1,19.8,28.47,NW,315,0.0,0.0,51,0.00,,---,0.00,VWS V14.01,2013-05-01 04:42:00,
2013-04-30 21:47:00,35.8,19.4,28.47,NW,315,0.0,0.0,51,0.00,,---,0.00,VWS V14.01,2013-05-01 04:47:00,
2013-04-30 21:52:00,35.4,19.6,28.47,NW,315,0.0,0.0,52,0.00,,---,0.00,VWS V14.01,2013-05-01 04:52:00,
2013-04-30 21:57:00,35.4,20.0,28.47,WNW,292,0.0,0.0,53,0.00,,---,0.00,VWS V14.01,2013-05-01 04:57:00,
2013-04-30 22:02:00,35.4,20.0,28.47,WSW,248,2.0,2.2,53,0.00,,---,0.00,VWS V14.01,2013-05-01 05:02:00,
2013-04-30 22:07:00,35.4,19.6,28.47,NE,45,0.0,0.0,52,0.00,,---,0.00,VWS V14.01,2013-05-01 05:07:00,
2013-04-30 22:12:00,35.2,19.8,28.47,WSW,248,1.3,2.2,53,0.00,,---,0.00,VWS V14.01,2013-05-01 05:12:00,
2013-04-30 22:17:00,35.2,19.8,28.50,WNW,292,1.3,1.3,53,0.00,,---,0.00,VWS V14.01,2013-05-01 05:17:00,
2013-04-30 22:22:00,35.2,19.8,28.50,SW,225,0.0,0.0,53,0.00,,---,0.00,VWS V14.01,2013-05-01 05:22:00,
2013-04-30 22:28:00,35.2,20.3,28.50,West,270,0.0,0.0,54,0.00,,---,0.00,VWS V14.01,2013-05-01 05:28:00,
2013-04-30 22:33:00,35.1,19.7,28.50,West,270,0.0,0.0,53,0.00,,---,0.00,VWS V14.01,2013-05-01 05:33:00,
2013-04-30 22:38:00,34.9,19.9,28.50,West,270,1.3,1.3,54,0.00,,---,0.00,VWS V14.01,2013-05-01 05:38:00,
2013-04-30 22:43:00,35.1,20.1,28.50,South,180,0.9,1.3,54,0.00,,---,0.00,VWS V14.01,2013-05-01 05:43:00,
2013-04-30 22:48:00,35.1,20.1,28.50,SW,225,0.0,1.3,54,0.00,,---,0.00,VWS V14.01,2013-05-01 05:48:00,
2013-04-30 22:53:00,34.7,19.8,28.50,WSW,248,2.2,2.2,54,0.00,,---,0.00,VWS V14.01,2013-05-01 05:53:00,
2013-04-30 22:58:00,34.7,19.8,28.50,WNW,292,0.0,1.1,54,0.00,,---,0.00,VWS V14.01,2013-05-01 05:58:00,
2013-04-30 23:03:00,34.3,19.4,28.50,WNW,292,0.0,0.9,54,0.00,,---,0.00,VWS V14.01,2013-05-01 06:03:00,
2013-04-30 23:08:00,34.3,19.9,28.50,WSW,248,2.0,2.5,55,0.00,,---,0.00,VWS V14.01,2013-05-01 06:08:00,
2013-04-30 23:13:00,34.3,19.9,28.50,WSW,248,0.0,0.0,55,0.00,,---,0.00,VWS V14.01,2013-05-01 06:13:00,
2013-04-30 23:18:00,34.3,19.9,28.50,WSW,248,0.0,0.0,55,0.00,,---,0.00,VWS V14.01,2013-05-01 06:18:00,
2013-04-30 23:23:00,34.0,19.5,28.50,SW,225,1.6,1.6,55,0.00,,---,0.00,VWS V14.01,2013-05-01 06:23:00,
2013-04-30 23:28:00,34.0,19.5,28.50,SW,225,2.0,2.0,55,0.00,,---,0.00,VWS V14.01,2013-05-01 06:28:00,
2013-04-30 23:33:00,34.0,20.0,28.50,ESE,112,1.3,2.2,56,0.00,,---,0.00,VWS V14.01,2013-05-01 06:33:00,
2013-04-30 23:38:00,34.3,20.3,28.50,South,180,0.9,1.3,56,0.00,,---,0.00,VWS V14.01,2013-05-01 06:38:00,
2013-04-30 23:43:00,34.0,20.0,28.50,West,270,0.0,0.0,56,0.00,,---,0.00,VWS V14.01,2013-05-01 06:43:00,
2013-04-30 23:48:00,33.8,19.8,28.50,SW,225,0.0,0.0,56,0.00,,---,0.00,VWS V14.01,2013-05-01 06:48:00,
2013-04-30 23:53:00,33.8,20.2,28.50,SSW,202,2.2,2.2,57,0.00,,---,0.00,VWS V14.01,2013-05-01 06:53:00,
2013-04-30 23:58:00,33.6,20.0,28.50,West,270,0.0,0.0,57,0.00,,---,0.00,VWS V14.01,2013-05-01 06:58:00,